This is the latest recevied weather packets stored in our database for station/object N2PPN. If no packets are shown the sender has not sent any weather packets the latest 10 day(s).
| Time | Temp. | Humidity | Pressure | Rain* | Wind** | Luminosity | Snow |
|---|---|---|---|---|---|---|---|
| 1777896047 | 12.78° C | 59% | 1017.1 hPa | 0 mm | - | 197 W/m² | - |
| 1777895745 | 12.78° C | 60% | 1017.5 hPa | 0 mm | - | 183 W/m² | - |
| 1777895442 | 12.78° C | 60% | 1016.9 hPa | 0 mm | - | 50 W/m² | - |
| 1777895140 | 12.22° C | 60% | 1017.3 hPa | 0 mm | - | 155 W/m² | - |
| 1777894837 | 12.22° C | 61% | 1017.1 hPa | 0 mm | - | 143 W/m² | - |
| 1777894533 | 12.22° C | 61% | 1017.2 hPa | 0 mm | - | 49 W/m² | - |
| 1777894231 | 11.67° C | 62% | 1017.2 hPa | 0 mm | - | 120 W/m² | - |
| 1777893927 | 11.67° C | 63% | 1017.3 hPa | 0 mm | - | 108 W/m² | - |
| 1777893624 | 11.67° C | 64% | 1017.4 hPa | 0 mm | - | 96 W/m² | - |
| 1777893320 | 11.11° C | 65% | 1017.3 hPa | 0 mm | - | 46 W/m² | - |
| 1777893016 | 11.11° C | 65% | 1017.2 hPa | 0 mm | - | 75 W/m² | - |
| 1777892714 | 11.11° C | 66% | 1017.4 hPa | 0 mm | - | 66 W/m² | - |
| 1777892410 | 10.56° C | 66% | 1017.1 hPa | 0 mm | - | 56 W/m² | - |
| 1777892106 | 10.56° C | 66% | 1017.3 hPa | 0 mm | - | 50 W/m² | - |
| 1777891803 | 10.56° C | 65% | 1017.4 hPa | 0 mm | - | 42 W/m² | - |
| 1777891500 | 10° C | 64% | 1017.3 hPa | 0 mm | - | 37 W/m² | - |
| 1777891195 | 10° C | 63% | 1017.2 hPa | 0 mm | - | 32 W/m² | - |
| 1777890889 | 10° C | 64% | 1017.4 hPa | 0 mm | - | 30 W/m² | - |
| 1777890586 | 10° C | 64% | 1017.3 hPa | 0 mm | - | 26 W/m² | - |
| 1777890281 | 10° C | 64% | 1017.1 hPa | 0 mm | - | 23 W/m² | - |
| 1777889978 | 10° C | 65% | 1017.1 hPa | 0 mm | - | 20 W/m² | - |
| 1777889675 | 10° C | 65% | 1017.2 hPa | 0 mm | - | 16 W/m² | - |
| 1777889372 | 10° C | 65% | 1017.1 hPa | 0 mm | - | 13 W/m² | - |
| 1777889070 | 10° C | 66% | 1017.1 hPa | 0 mm | - | 10 W/m² | - |
| 1777888767 | 10° C | 66% | 1017 hPa | 0 mm | - | 7 W/m² | - |
* Rain latest hour (hover to see other rain measurements)
** Current wind speed in m/s (hover to see current wind gust speed)